Starlink 3330

operational
NORAD ID: 50836 Int'l Des: 2022-001 Owner: SPXS Country: US Constellation: starlink
LEOCIRCULAR

关于 Starlink 3330

正在加载描述...

实时位置

正在加载3D地球...

即将过境

高度历史

Altitude vs Time

uPlot chart will show altitude changes over time

两行轨道根数

1 50836U 22001AK 26061.66288451 .00001476 00000-0 11079-3 0 9991
2 50836 53.2175 210.4445 0000821 76.9478 283.1606 15.08841311229101
Epoch: Mar 2, 2026 • Age: 32 hours

当前状态

高度 554.4 km
速度 7.58 km/s
星下点 -42.67°S, 110.13°W
发射日期 Jan 6, 2022
运行时间 4.1 years
类型 internet

技术详情

分类 Payload
质量 297.00 kg
干质量 275.00 kg
总质量 297.00 kg
长度 0.20 m
直径 2.80 m
跨度 9.00 m
形状 Box + pan
制造商 SPXS
平台类型 Starlink
阶段状态 In Orbit
所有者/国家 SPXS/US

大型星座

Loading constellations...